User: anonymous   Login
Location: Unspecified
(0.0000°N, 0.0000°E)
Time: 06:56:27
(UTC+00:00)
Language:

RESURS DK-1 - Orbit

View from above orbital plane
View from above orbital plane
View from above satellite
View from above satellite

Ground track
Ground track

The orbit data is extracted from the following two-line orbital elements,

1 29228U 06021A   15086.15824182  .00001030  00000-0  87305-4 0  9994
2 29228 069.9400 005.5468 0004577 188.9869 274.2794 15.01340545486037
Epoch (UTC): 27 March 2015 03:47:52
Eccentricity: 0.0004577
inclination: 69.9400°
perigee height: 559 km
apogee height: 566 km
right ascension of ascending node: 5.5468°
argument of perigee: 188.9869°
revolutions per day: 15.01340545
mean anomaly at epoch: 274.2794°
orbit number at epoch: 48603

The dashed part of the orbit path shows where the satellite is in the earth's shadow,  

DLR